Wind_Speed
57 50 49 47 40 44 50 54 64 58 61 59 59 59 62 62 60 58 62 64 72 79 80 85 90 92 92 92 79 65 54 46 44 40 37 37 40 44 44 43 43 43 44
48 42 45 42 44 49 55 56 54 59 59 59 57 60 61 58 57 57 62 69 75 79 81 84 88 94 98 94 78 67 57 47 44 44 40 38 39 40 42 46 49 50 51
53 46 46 39 39 43 48 60 62 60 58 55 57 59 57 55 57 58 65 72 76 78 80 82 88 96 101 97 77 65 57 48 41 43 42 41 40 41 43 43 43 45 47
52 46 50 43 47 52 55 60 65 57 54 52 60 62 57 56 58 59 69 73 77 77 81 87 93 99 101 96 77 63 54 48 43 43 41 43 44 44 47 48 48 47 46
42 44 45 43 50 53 57 58 61 56 51 59 67 60 55 59 59 62 70 78 79 80 84 90 95 102 104 95 76 63 52 47 44 44 43 42 43 46 48 49 51 51 49
47 40 40 49 44 56 59 58 54 55 65 62 66 60 55 62 58 66 73 79 80 80 86 92 97 106 108 96 76 64 56 49 48 48 46 46 45 46 48 49 50 49 49
45 47 45 45 47 54 59 56 57 60 58 66 58 56 58 63 59 64 71 81 78 81 87 93 101 107 109 95 78 69 60 53 49 50 52 52 52 50 52 53 53 52 51
50 48 48 45 53 61 57 56 55 58 59 54 55 54 58 61 62 65 71 79 77 81 90 96 103 109 107 91 79 73 66 62 61 58 55 53 51 48 48 48 51 51 49
55 53 41 43 45 55 56 51 57 56 54 57 56 55 60 62 63 66 69 78 79 83 92 99 105 111 104 86 78 72 70 66 61 56 53 48 43 39 36 36 37 38 40
48 44 45 43 46 51 51 54 56 59 61 55 54 59 58 69 61 63 76 74 78 85 94 102 109 112 97 82 76 73 69 64 56 49 44 40 35 31 28 25 25 24 25
49 39 38 32 40 44 47 51 58 59 55 54 55 57 64 58 59 70 72 76 81 88 97 105 111 109 91 82 78 74 65 56 49 44 38 32 28 24 20 17 15 15 16
44 37 41 31 41 47 33 52 56 52 46 51 53 59 55 59 63 70 71 74 83 92 101 107 113 106 87 81 76 66 57 49 42 36 29 24 18 14 10 8 8 9 12
47 37 37 32 44 47 44 46 41 47 48 50 56 54 57 58 64 65 69 78 87 96 103 111 114 100 84 78 69 58 47 41 34 27 20 15 11 8 3 2 6 12 18
57 43 31 41 30 24 45 41 47 44 46 45 52 58 55 57 62 66 72 80 88 97 105 105 115 91 81 71 59 50 41 33 26 21 16 12 8 5 3 6 14 20 20
52 53 36 28 35 43 41 43 42 52 55 53 57 57 56 58 63 66 74 80 90 98 102 110 99 82 74 63 52 44 37 31 23 17 12 10 7 3 5 14 19 19 17
49 52 52 47 39 36 40 44 42 45 45 52 56 61 54 61 62 69 72 80 93 99 102 112 90 77 68 57 47 39 32 24 18 13 10 8 5 7 13 17 17 15 12
51 49 49 50 50 47 48 40 40 44 51 54 59 53 59 62 69 68 73 82 93 98 103 103 82 73 60 48 39 33 26 20 16 13 10 9 9 11 13 14 12 10 7
52 47 41 32 38 47 45 39 41 45 47 47 49 53 59 66 67 69 77 86 95 102 108 94 77 66 52 40 33 27 20 16 13 11 10 9 10 10 10 9 7 7 8
50 45 34 36 40 37 37 32 36 43 45 45 48 55 60 62 63 73 80 91 97 102 104 81 70 55 42 33 27 21 16 13 10 9 9 8 7 6 4 3 5 9 12
55 36 31 38 43 41 41 36 41 45 41 44 53 59 56 57 66 78 85 91 98 103 86 69 58 45 35 29 23 17 13 10 7 6 5 4 2 1 3 6 10 13 15
50 37 36 36 38 39 41 40 44 41 37 44 46 50 54 63 71 79 87 93 98 90 71 62 50 38 31 25 20 15 12 9 7 6 4 4 5 7 10 12 15 17 19
43 39 39 33 23 29 29 33 34 30 37 48 53 51 57 66 74 81 89 95 93 77 65 55 43 34 27 22 17 14 12 11 9 8 8 9 11 13 14 17 19 22 24
46 43 37 25 29 27 29 31 32 35 44 50 49 55 61 69 77 82 91 94 80 65 58 46 36 28 22 17 15 15 14 13 12 12 14 15 16 17 19 20 21 22 23
38 31 26 26 23 27 30 31 31 40 45 47 53 57 63 71 77 84 90 85 66 59 50 38 28 22 17 15 15 15 16 16 16 16 16 17 18 18 19 20 20 20 21
43 37 33 32 29 23 26 28 35 39 43 48 51 57 65 73 77 86 93 76 59 53 41 30 23 18 17 16 16 17 18 19 20 21 21 18 17 17 18 18 17 16 15
43 31 26 25 21 21 25 29 36 42 44 47 53 61 67 74 82 87 84 62 52 44 30 23 20 18 17 19 20 21 22 23 22 20 17 16 15 16 16 16 14 12 11
Wind_Direction
260 275 283 293 295 298 290 298 302 308 309 313 317 312 314 315 314 320 324 328 330 332 333 334 333 333 336 337 332 327 319 310 300 297 293 286 277 269 267 266 267 266 266
265 272 278 288 299 299 294 297 305 309 313 318 317 314 316 314 316 321 327 331 331 333 333 333 335 338 338 338 331 327 319 311 305 296 291 287 283 279 275 270 267 265 265
265 273 273 282 279 284 283 293 308 311 314 319 319 318 314 316 321 326 329 331 331 332 333 333 335 335 338 338 333 327 320 310 301 296 289 285 282 281 278 275 272 270 269
266 262 269 273 276 282 293 300 307 311 312 316 319 320 313 319 324 330 330 332 332 332 332 333 335 335 338 337 334 328 323 315 305 300 296 287 283 280 278 277 273 270 271
258 263 267 279 287 288 295 299 303 309 311 313 319 317 314 326 327 329 328 330 331 332 333 333 335 336 337 337 333 328 325 320 313 306 301 294 286 281 277 275 273 272 270
251 257 275 289 291 292 293 298 303 303 311 312 316 314 317 326 326 327 328 328 331 331 331 333 334 334 335 337 332 328 324 321 316 310 305 299 293 286 281 276 273 270 269
257 256 265 281 281 283 291 294 300 304 308 310 310 309 314 321 324 324 327 331 329 332 331 333 332 334 335 335 332 327 324 320 314 308 303 297 290 283 277 274 271 269 267
249 249 270 275 276 281 287 295 298 301 304 309 306 308 315 318 319 322 326 330 330 331 333 333 333 333 333 333 331 327 325 321 317 311 304 297 291 285 276 269 265 263 261
249 254 260 269 271 276 288 293 297 297 300 303 306 310 312 315 318 323 327 329 331 333 333 331 332 332 333 332 330 327 324 320 315 310 305 301 296 288 281 274 267 260 255
247 249 247 269 273 278 282 294 290 294 301 305 301 307 311 311 317 325 329 327 330 334 332 331 332 333 333 331 328 326 325 321 317 313 307 304 300 295 288 278 268 256 249
247 245 248 226 270 277 292 293 292 293 301 306 307 307 313 314 323 328 327 329 331 333 332 331 332 334 334 331 330 329 326 323 321 318 315 312 309 302 292 278 262 246 235
238 231 215 237 270 276 292 289 290 293 305 309 311 312 312 320 325 327 328 329 332 334 331 332 334 336 334 332 331 330 328 328 326 323 322 319 316 310 300 276 242 210 197
215 218 226 247 268 278 276 286 287 297 303 304 311 319 320 322 326 325 327 330 334 331 332 334 333 335 333 332 332 332 332 331 331 333 337 340 339 341 340 181 171 168 157
216 211 222 226 259 273 267 257 277 291 302 309 311 320 317 321 322 325 329 331 331 329 332 333 334 334 333 333 334 335 336 338 343 351 358 4 15 34 99 150 150 149 149
214 207 203 222 256 245 252 260 271 282 297 303 304 312 314 320 320 324 326 329 328 330 332 334 335 334 335 337 338 339 344 348 352 360 9 21 32 52 131 142 146 149 153
206 205 204 234 241 250 252 256 260 276 294 295 299 304 314 316 316 319 323 329 326 330 333 335 335 336 338 339 340 345 348 351 357 6 22 32 57 112 132 141 149 155 160
204 202 208 225 241 252 253 257 269 277 287 294 296 301 311 309 312 319 329 326 326 331 334 336 336 337 339 339 343 348 352 360 12 27 44 67 98 120 135 152 160 170 188
198 197 206 220 247 252 252 257 268 279 290 295 300 306 305 308 319 328 328 326 329 331 334 335 336 339 338 340 346 350 357 11 26 41 62 85 108 123 143 164 185 215 246
185 187 202 208 234 232 248 261 274 285 289 296 304 302 309 317 325 327 327 325 328 331 334 336 336 337 336 341 347 351 358 17 31 50 67 80 98 119 148 210 259 278 278
178 184 211 218 222 237 245 262 275 285 294 304 298 305 314 325 329 329 325 325 328 332 335 334 336 337 338 342 347 350 358 12 24 42 57 59 53 321 287 285 290 292 296
182 196 210 218 229 236 247 260 274 286 301 302 308 309 321 326 329 327 324 326 329 334 335 336 339 338 339 344 348 350 357 360 360 354 346 330 313 306 304 304 303 300 297
178 191 209 212 237 249 254 271 289 301 302 304 308 318 325 326 324 323 324 328 333 334 337 339 338 338 341 347 353 356 355 351 343 333 319 311 313 312 308 303 302 302 303
186 200 206 200 232 244 269 281 289 298 303 307 317 322 321 322 322 322 327 331 334 337 340 340 338 341 349 357 360 2 1 354 344 335 325 318 314 312 312 311 310 309 309
183 194 204 222 249 250 268 281 284 289 299 312 316 322 321 320 320 324 334 336 338 340 341 341 345 354 4 6 7 4 358 354 349 339 332 327 325 323 321 318 315 315 316
186 195 210 227 248 261 273 280 285 294 305 311 319 319 318 319 323 329 332 335 339 342 342 346 356 7 11 10 4 1 355 344 341 341 340 340 340 341 339 336 335 337 341
185 191 199 218 236 264 278 281 285 289 312 318 317 315 317 320 327 330 334 336 342 343 344 353 5 10 9 7 1 351 347 349 352 355 1 6 5 1 3 3 2 6 14
Height
10747 10742 10739 10737 10739 10736 10732 10727 10721 10714 10708 10701 10693 10685 10676 10667 10657 10648 10637 10628 10616 10604 10590 10576 10560 10545 10530 10513 10497 10484 10475 10466 10456 10452 10449 10445 10439 10438 10438 10437 10437 10436 10435
10734 10731 10727 10728 10727 10725 10723 10718 10711 10702 10694 10688 10680 10673 10664 10656 10647 10638 10627 10617 10606 10593 10580 10567 10553 10538 10519 10501 10484 10471 10459 10452 10443 10437 10435 10432 10427 10424 10421 10421 10420 10420 10420
10727 10720 10715 10717 10716 10714 10710 10705 10700 10693 10684 10678 10671 10662 10654 10645 10636 10628 10619 10609 10597 10584 10571 10558 10544 10529 10510 10490 10473 10458 10445 10436 10430 10423 10420 10417 10413 10410 10405 10404 10402 10401 10400
10711 10707 10705 10705 10703 10701 10697 10692 10686 10680 10673 10668 10662 10652 10645 10637 10627 10618 10609 10599 10587 10573 10560 10546 10531 10517 10501 10482 10462 10447 10434 10423 10415 10409 10406 10401 10398 10395 10390 10387 10386 10385 10384
10699 10695 10692 10692 10690 10687 10687 10681 10676 10669 10662 10655 10653 10642 10635 10626 10617 10608 10598 10589 10577 10562 10547 10533 10518 10503 10488 10472 10452 10437 10425 10414 10404 10395 10391 10386 10383 10378 10374 10371 10368 10366 10368
10687 10686 10683 10681 10679 10675 10674 10670 10665 10658 10654 10648 10639 10630 10623 10618 10609 10600 10590 10579 10566 10551 10536 10520 10504 10488 10471 10455 10439 10425 10413 10402 10392 10383 10375 10369 10364 10360 10355 10352 10349 10349 10349
10676 10675 10676 10672 10669 10665 10661 10659 10655 10649 10646 10638 10632 10624 10617 10609 10601 10591 10581 10570 10557 10542 10528 10512 10494 10476 10457 10439 10422 10409 10398 10389 10380 10369 10359 10351 10344 10340 10334 10331 10328 10329 10329
10664 10666 10666 10664 10659 10655 10652 10649 10646 10640 10635 10631 10623 10617 10610 10601 10593 10583 10573 10561 10547 10533 10517 10501 10482 10465 10445 10424 10406 10391 10380 10367 10354 10344 10336 10328 10321 10317 10313 10311 10309 10310 10312
10649 10654 10656 10653 10651 10645 10644 10641 10637 10631 10626 10621 10613 10608 10600 10592 10584 10574 10562 10551 10538 10522 10505 10490 10472 10452 10431 10412 10393 10377 10363 10350 10337 10326 10315 10307 10302 10297 10294 10292 10291 10293 10296
10632 10641 10646 10649 10639 10638 10637 10634 10628 10621 10617 10612 10605 10599 10590 10583 10572 10564 10553 10540 10529 10516 10498 10478 10459 10438 10417 10398 10380 10364 10347 10331 10317 10308 10299 10291 10286 10282 10279 10278 10279 10281 10286
10618 10627 10634 10637 10632 10632 10629 10625 10618 10613 10610 10604 10597 10590 10583 10573 10564 10554 10542 10530 10517 10504 10487 10468 10446 10424 10400 10380 10361 10345 10331 10317 10304 10294 10286 10279 10274 10272 10270 10270 10272 10275 10280
10606 10614 10619 10624 10624 10624 10623 10610 10609 10603 10600 10596 10589 10582 10574 10565 10554 10544 10534 10522 10507 10491 10474 10452 10429 10407 10386 10367 10349 10334 10319 10305 10295 10286 10279 10273 10270 10268 10267 10268 10270 10274 10278
10591 10600 10610 10618 10616 10615 10615 10608 10598 10594 10591 10588 10582 10575 10565 10556 10546 10538 10527 10513 10497 10480 10461 10438 10416 10396 10377 10357 10339 10324 10313 10302 10291 10283 10276 10272 10269 10268 10268 10270 10273 10276 10280
10575 10590 10603 10603 10604 10607 10599 10597 10590 10587 10583 10579 10575 10568 10559 10547 10539 10530 10517 10503 10488 10472 10455 10432 10406 10384 10367 10348 10332 10318 10308 10299 10289 10281 10277 10274 10272 10271 10272 10274 10276 10280 10284
10561 10577 10588 10594 10590 10590 10590 10588 10587 10579 10576 10572 10569 10560 10552 10541 10533 10523 10511 10497 10481 10466 10446 10421 10397 10378 10357 10339 10326 10313 10302 10294 10287 10283 10279 10277 10276 10276 10277 10279 10282 10285 10288
10548 10560 10570 10573 10574 10579 10579 10578 10577 10572 10571 10566 10561 10553 10545 10536 10528 10516 10505 10488 10470 10453 10433 10409 10383 10367 10348 10333 10321 10310 10303 10296 10290 10285 10282 10281 10280 10281 10282 10285 10288 10290 10293
10535 10546 10558 10565 10568 10574 10571 10568 10568 10567 10564 10559 10551 10544 10538 10530 10521 10509 10493 10478 10462 10442 10420 10397 10375 10358 10343 10332 10321 10312 10305 10298 10293 10289 10287 10286 10286 10287 10289 10291 10293 10294 10296
10524 10537 10551 10561 10562 10563 10561 10562 10563 10561 10557 10550 10544 10539 10532 10523 10513 10497 10481 10466 10448 10427 10407 10386 10367 10351 10340 10330 10321 10313 10307 10301 10297 10294 10292 10292 10292 10293 10294 10296 10297 10297 10297
10519 10531 10543 10547 10548 10550 10553 10557 10557 10552 10547 10545 10537 10533 10526 10517 10502 10486 10471 10456 10437 10417 10397 10376 10361 10349 10339 10330 10321 10315 10310 10305 10302 10300 10298 10297 10298 10298 10298 10298 10298 10298 10296
10513 10522 10532 10538 10540 10543 10547 10549 10548 10545 10541 10538 10533 10526 10517 10506 10492 10476 10462 10446 10428 10409 10389 10375 10359 10347 10337 10329 10321 10317 10312 10309 10306 10304 10303 10302 10301 10300 10299 10299 10297 10296 10294
10504 10513 10522 10528 10533 10537 10542 10542 10540 10540 10535 10531 10524 10517 10506 10494 10481 10469 10451 10435 10418 10399 10382 10365 10351 10343 10335 10327 10321 10318 10314 10312 10310 10307 10305 10304 10302 10301 10299 10297 10295 10292 10290
10500 10510 10517 10525 10531 10532 10536 10535 10533 10532 10528 10521 10513 10505 10494 10483 10472 10458 10441 10423 10405 10386 10370 10357 10346 10340 10332 10326 10322 10319 10316 10314 10311 10308 10306 10304 10302 10300 10297 10294 10291 10288 10284
10496 10507 10516 10521 10524 10529 10530 10528 10527 10526 10520 10513 10505 10496 10488 10477 10464 10447 10432 10413 10393 10376 10363 10353 10343 10336 10330 10326 10323 10320 10317 10315 10312 10309 10306 10303 10300 10296 10293 10290 10286 10283 10279
10497 10506 10512 10518 10525 10526 10525 10524 10522 10517 10513 10506 10499 10490 10480 10467 10454 10440 10421 10401 10384 10370 10359 10351 10342 10335 10331 10328 10325 10322 10319 10315 10312 10308 10304 10300 10297 10293 10289 10285 10281 10278 10274
10494 10502 10510 10517 10519 10521 10520 10518 10516 10512 10508 10500 10490 10481 10471 10459 10443 10427 10411 10394 10378 10366 10358 10350 10342 10337 10334 10331 10328 10324 10320 10315 10310 10306 10302 10298 10293 10289 10285 10281 10278 10275 10271
10493 10501 10507 10510 10513 10514 10513 10511 10509 10504 10499 10490 10481 10471 10460 10447 10433 10417 10402 10386 10374 10364 10357 10350 10344 10340 10337 10334 10330 10325 10319 10314 10310 10305 10301 10297 10292 10289 10285 10282 10278 10275 10272